"FRM_AIS_EDR_1997.DAT           ",2005-08-04T21:59:33.34 ,"1/0071272768.11862",    0,    0,  274896,"AIS","B1","B1","B1","B1","PISd",0,0,0,0,"B1", 0,15,   0, 0,    0,"AIS","N/A    ","OK ","OK ",    001178.971,    -053.969,    0097.308,    0015.770,    0050.618
"FRM_AIS_EDR_1997.DAT           ",2005-08-04T21:59:40.88 ,"1/0071272775.47461",    0,    1,  274896,"AIS","B1","B1","B1","B1","PISd",0,0,0,0,"B1", 0,15,   0, 0,    0,"AIS","N/A    ","OK ","OK ",    001168.588,    -053.643,    0097.333,    0015.773,    0050.584
"FRM_AIS_EDR_1997.DAT           ",2005-08-04T21:59:48.43 ,"1/0071272783.17524",    0,    2,  274896,"AIS","B1","B1","B1","B1","PISd",0,0,0,0,"B1", 0,15,   0, 0,    0,"AIS","N/A    ","OK ","OK ",    001158.235,    -053.315,    0097.358,    0015.777,    0050.551
"FRM_AIS_EDR_1997.DAT           ",2005-08-04T21:59:55.97 ,"1/0071272790.53124",    0,    3,  274896,"AIS","B1","B1","B1","B1","PISd",0,0,0,0,"B1", 0,15,   0, 0,    0,"AIS","N/A    ","OK ","OK ",    001147.915,    -052.986,    0097.382,    0015.781,    0050.520
"FRM_AIS_EDR_1997.DAT           ",2005-08-04T22:00:03.51 ,"1/0071272798.23187",    0,    4,  274896,"AIS","B1","B1","B1","B1","PISd",0,0,0,0,"B1", 0,15,   0, 0,    0,"AIS","N/A    ","OK ","OK ",    001137.627,    -052.655,    0097.405,    0015.784,    0050.490
"FRM_AIS_EDR_1997.DAT           ",2005-08-04T22:00:11.06 ,"1/0071272805.58786",    0,    5,  274896,"AIS","B1","B1","B1","B1","PISd",0,0,0,0,"B1", 0,15,   0, 0,    0,"AIS","N/A    ","OK ","OK ",    001127.372,    -052.323,    0097.428,    0015.788,    0050.462
"FRM_AIS_EDR_1997.DAT           ",2005-08-04T22:00:18.60 ,"1/0071272813.28850",    0,    6,  274896,"AIS","B1","B1","B1","B1","PISd",0,0,0,0,"B1", 0,15,   0, 0,    0,"AIS","N/A    ","OK ","OK ",    001117.150,    -051.989,    0097.451,    0015.791,    0050.435
"FRM_AIS_EDR_1997.DAT           ",2005-08-04T22:00:26.14 ,"1/0071272820.64449",    0,    7,  274896,"AIS","B1","B1","B1","B1","PISd",0,0,0,0,"B1", 0,15,   0, 0,    0,"AIS","N/A    ","OK ","OK ",    001106.962,    -051.654,    0097.472,    0015.795,    0050.409
"FRM_AIS_EDR_1997.DAT           ",2005-08-04T22:00:33.69 ,"1/0071272828.34512",    0,    8,  274896,"AIS","B1","B1","B1","B1","PISd",0,0,0,0,"B1", 0,15,   0, 0,    0,"AIS","N/A    ","OK ","OK ",    001096.808,    -051.317,    0097.493,    0015.798,    0050.385
"FRM_AIS_EDR_1997.DAT           ",2005-08-04T22:00:41.23 ,"1/0071272836.04576",    0,    9,  274896,"AIS","B1","B1","B1","B1","PISd",0,0,0,0,"B1", 0,15,   0, 0,    0,"AIS","N/A    ","OK ","OK ",    001086.689,    -050.979,    0097.514,    0015.802,    0050.362
"FRM_AIS_EDR_1997.DAT           ",2005-08-04T22:00:48.77 ,"1/0071272843.40175",    0,   10,  274896,"AIS","B1","B1","B1","B1","PISd",0,0,0,0,"B1", 0,15,   0, 0,    0,"AIS","N/A    ","OK ","OK ",    001076.606,    -050.639,    0097.534,    0015.805,    0050.341
"FRM_AIS_EDR_1997.DAT           ",2005-08-04T22:00:56.31 ,"1/0071272851.10238",    0,   11,  274896,"AIS","B1","B1","B1","B1","PISd",0,0,0,0,"B1", 0,15,   0, 0,    0,"AIS","N/A    ","OK ","OK ",    001066.559,    -050.298,    0097.554,    0015.809,    0050.322
"FRM_AIS_EDR_1997.DAT           ",2005-08-04T22:01:03.86 ,"1/0071272858.45838",    0,   12,  274896,"AIS","B1","B1","B1","B1","PISd",0,0,0,0,"B1", 0,15,   0, 0,    0,"AIS","N/A    ","OK ","OK ",    001056.548,    -049.955,    0097.573,    0015.812,    0050.304
"FRM_AIS_EDR_1997.DAT           ",2005-08-04T22:01:11.40 ,"1/0071272866.15901",    0,   13,  274896,"AIS","B1","B1","B1","B1","PISd",0,0,0,0,"B1", 0,15,   0, 0,    0,"AIS","N/A    ","OK ","OK ",    001046.574,    -049.610,    0097.592,    0015.815,    0050.288
"FRM_AIS_EDR_1997.DAT           ",2005-08-04T22:01:18.94 ,"1/0071272873.51500",    0,   14,  274896,"AIS","B1","B1","B1","B1","PISd",0,0,0,0,"B1", 0,15,   0, 0,    0,"AIS","N/A    ","OK ","OK ",    001036.638,    -049.264,    0097.610,    0015.818,    0050.274
"FRM_AIS_EDR_1997.DAT           ",2005-08-04T22:01:26.49 ,"1/0071272881.21564",    0,   15,  274896,"AIS","B1","B1","B1","B1","PISd",0,0,0,0,"B1", 0,15,   0, 0,    0,"AIS","N/A    ","OK ","OK ",    001026.740,    -048.916,    0097.628,    0015.822,    0050.261
"FRM_AIS_EDR_1997.DAT           ",2005-08-04T22:01:34.03 ,"1/0071272888.57163",    0,   16,  274896,"AIS","B1","B1","B1","B1","PISd",0,0,0,0,"B1", 0,15,   0, 0,    0,"AIS","N/A    ","OK ","OK ",    001016.880,    -048.567,    0097.645,    0015.825,    0050.250
"FRM_AIS_EDR_1997.DAT           ",2005-08-04T22:01:41.57 ,"1/0071272896.27226",    0,   17,  274896,"AIS","B1","B1","B1","B1","PISd",0,0,0,0,"B1", 0,15,   0, 0,    0,"AIS","N/A    ","OK ","OK ",    001007.060,    -048.216,    0097.662,    0015.828,    0050.241
"FRM_AIS_EDR_1997.DAT           ",2005-08-04T22:01:49.12 ,"1/0071272903.62826",    0,   18,  274896,"AIS","B1","B1","B1","B1","PISd",0,0,0,0,"B1", 0,15,   0, 0,    0,"AIS","N/A    ","OK ","OK ",    000997.279,    -047.864,    0097.678,    0015.831,    0050.233
"FRM_AIS_EDR_1997.DAT           ",2005-08-04T22:01:56.66 ,"1/0071272911.32889",    0,   19,  274896,"AIS","B1","B1","B1","B1","PISd",0,0,0,0,"B1", 0,15,   0, 0,    0,"AIS","N/A    ","OK ","OK ",    000987.539,    -047.510,    0097.694,    0015.834,    0050.227
"FRM_AIS_EDR_1997.DAT           ",2005-08-04T22:02:04.20 ,"1/0071272919.02952",    0,   20,  274896,"AIS","B1","B1","B1","B1","PISd",0,0,0,0,"B1", 0,15,   0, 0,    0,"AIS","N/A    ","OK ","OK ",    000977.840,    -047.155,    0097.710,    0015.837,    0050.223
"FRM_AIS_EDR_1997.DAT           ",2005-08-04T22:02:11.75 ,"1/0071272926.38552",    0,   21,  274896,"AIS","B1","B1","B1","B1","PISd",0,0,0,0,"B1", 0,15,   0, 0,    0,"AIS","N/A    ","OK ","OK ",    000968.182,    -046.798,    0097.725,    0015.840,    0050.221
"FRM_AIS_EDR_1997.DAT           ",2005-08-04T22:02:19.29 ,"1/0071272934.08615",    0,   22,  274896,"AIS","B1","B1","B1","B1","PISd",0,0,0,0,"B1", 0,15,   0, 0,    0,"AIS","N/A    ","OK ","OK ",    000958.566,    -046.439,    0097.740,    0015.843,    0050.221
"FRM_AIS_EDR_1997.DAT           ",2005-08-04T22:02:26.83 ,"1/0071272941.44214",    0,   23,  274896,"AIS","B1","B1","B1","B1","PISd",0,0,0,0,"B1", 0,15,   0, 0,    0,"AIS","N/A    ","OK ","OK ",    000948.993,    -046.079,    0097.754,    0015.846,    0050.223
"FRM_AIS_EDR_1997.DAT           ",2005-08-04T22:02:34.38 ,"1/0071272949.14278",    0,   24,  274896,"AIS","B1","B1","B1","B1","PISd",0,0,0,0,"B1", 0,15,   0, 0,    0,"AIS","N/A    ","OK ","OK ",    000939.463,    -045.717,    0097.768,    0015.849,    0050.226
"FRM_AIS_EDR_1997.DAT           ",2005-08-04T22:02:41.92 ,"1/0071272956.49877",    0,   25,  274896,"AIS","B1","B1","B1","B1","PISd",0,0,0,0,"B1", 0,15,   0, 0,    0,"AIS","N/A    ","OK ","OK ",    000929.976,    -045.353,    0097.781,    0015.852,    0050.232
"FRM_AIS_EDR_1997.DAT           ",2005-08-04T22:02:49.46 ,"1/0071272964.19940",    0,   26,  274896,"AIS","B1","B1","B1","B1","PISd",0,0,0,0,"B1", 0,15,   0, 0,    0,"AIS","N/A    ","OK ","OK ",    000920.534,    -044.988,    0097.794,    0015.855,    0050.239
"FRM_AIS_EDR_1997.DAT           ",2005-08-04T22:02:57.01 ,"1/0071272971.55540",    0,   27,  274896,"AIS","B1","B1","B1","B1","PISd",0,0,0,0,"B1", 0,15,   0, 0,    0,"AIS","N/A    ","OK ","OK ",    000911.137,    -044.622,    0097.807,    0015.858,    0050.249
"FRM_AIS_EDR_1997.DAT           ",2005-08-04T22:03:04.55 ,"1/0071272979.25603",    0,   28,  274896,"AIS","B1","B1","B1","B1","PISd",0,0,0,0,"B1", 0,15,   0, 0,    0,"AIS","N/A    ","OK ","OK ",    000901.786,    -044.254,    0097.820,    0015.861,    0050.260
"FRM_AIS_EDR_1997.DAT           ",2005-08-04T22:03:12.09 ,"1/0071272986.61202",    0,   29,  274896,"AIS","B1","B1","B1","B1","PISd",0,0,0,0,"B1", 0,15,   0, 0,    0,"AIS","N/A    ","OK ","OK ",    000892.481,    -043.884,    0097.832,    0015.864,    0050.274
"FRM_AIS_EDR_1997.DAT           ",2005-08-04T22:03:19.64 ,"1/0071272994.31266",    0,   30,  274896,"AIS","B1","B1","B1","B1","PISd",0,0,0,0,"B1", 0,15,   0, 0,    0,"AIS","N/A    ","OK ","OK ",    000883.222,    -043.512,    0097.844,    0015.866,    0050.289
"FRM_AIS_EDR_1997.DAT           ",2005-08-04T22:03:27.18 ,"1/0071273002.01329",    0,   31,  274896,"AIS","B1","B1","B1","B1","PISd",0,0,0,0,"B1", 0,15,   0, 0,    0,"AIS","N/A    ","OK ","OK ",    000874.011,    -043.139,    0097.855,    0015.869,    0050.307
"FRM_AIS_EDR_1997.DAT           ",2005-08-04T22:03:34.72 ,"1/0071273009.36928",    0,   32,  274896,"AIS","B1","B1","B1","B1","PISd",0,0,0,0,"B1", 0,15,   0, 0,    0,"AIS","N/A    ","OK ","OK ",    000864.848,    -042.765,    0097.866,    0015.872,    0050.327
"FRM_AIS_EDR_1997.DAT           ",2005-08-04T22:03:42.27 ,"1/0071273017.06992",    0,   33,  274896,"AIS","B1","B1","B1","B1","PISd",0,0,0,0,"B1", 0,15,   0, 0,    0,"AIS","N/A    ","OK ","OK ",    000855.734,    -042.388,    0097.877,    0015.875,    0050.349
"FRM_AIS_EDR_1997.DAT           ",2005-08-04T22:03:49.81 ,"1/0071273024.42591",    0,   34,  274896,"AIS","B1","B1","B1","B1","PISd",0,0,0,0,"B1", 0,15,   0, 0,    0,"AIS","N/A    ","OK ","OK ",    000846.669,    -042.010,    0097.887,    0015.877,    0050.373
"FRM_AIS_EDR_1997.DAT           ",2005-08-04T22:03:57.35 ,"1/0071273032.12654",    0,   35,  274896,"AIS","B1","B1","B1","B1","PISd",0,0,0,0,"B1", 0,15,   0, 0,    0,"AIS","N/A    ","OK ","OK ",    000837.653,    -041.631,    0097.897,    0015.880,    0050.399
"FRM_AIS_EDR_1997.DAT           ",2005-08-04T22:04:04.89 ,"1/0071273039.48254",    0,   36,  274896,"AIS","B1","B1","B1","B1","PISd",0,0,0,0,"B1", 0,15,   0, 0,    0,"AIS","N/A    ","OK ","OK ",    000828.689,    -041.250,    0097.907,    0015.883,    0050.428
"FRM_AIS_EDR_1997.DAT           ",2005-08-04T22:04:12.44 ,"1/0071273047.18317",    0,   37,  274896,"AIS","B1","B1","B1","B1","PISd",0,0,0,0,"B1", 0,15,   0, 0,    0,"AIS","N/A    ","OK ","OK ",    000819.775,    -040.867,    0097.916,    0015.886,    0050.459
"FRM_AIS_EDR_1997.DAT           ",2005-08-04T22:04:19.98 ,"1/0071273054.53916",    0,   38,  274896,"AIS","B1","B1","B1","B1","PISd",0,0,0,0,"B1", 0,15,   0, 0,    0,"AIS","N/A    ","OK ","OK ",    000810.913,    -040.483,    0097.926,    0015.888,    0050.492
"FRM_AIS_EDR_1997.DAT           ",2005-08-04T22:04:27.52 ,"1/0071273062.23980",    0,   39,  274896,"AIS","B1","B1","B1","B1","PISd",0,0,0,0,"B1", 0,15,   0, 0,    0,"AIS","N/A    ","OK ","OK ",    000802.103,    -040.097,    0097.935,    0015.891,    0050.527
"FRM_AIS_EDR_1997.DAT           ",2005-08-04T22:04:35.07 ,"1/0071273069.59579",    0,   40,  274896,"AIS","B1","B1","B1","B1","PISd",0,0,0,0,"B1", 0,15,   0, 0,    0,"AIS","N/A    ","OK ","OK ",    000793.347,    -039.709,    0097.943,    0015.894,    0050.565
"FRM_AIS_EDR_1997.DAT           ",2005-08-04T22:04:42.61 ,"1/0071273077.29642",    0,   41,  274896,"AIS","B1","B1","B1","B1","PISd",0,0,0,0,"B1", 0,15,   0, 0,    0,"AIS","N/A    ","OK ","OK ",    000784.644,    -039.320,    0097.951,    0015.896,    0050.605
"FRM_AIS_EDR_1997.DAT           ",2005-08-04T22:04:50.15 ,"1/0071273084.65242",    0,   42,  274896,"AIS","B1","B1","B1","B1","PISd",0,0,0,0,"B1", 0,15,   0, 0,    0,"AIS","N/A    ","OK ","OK ",    000775.995,    -038.929,    0097.959,    0015.899,    0050.647
"FRM_AIS_EDR_1997.DAT           ",2005-08-04T22:04:57.70 ,"1/0071273092.35305",    0,   43,  274896,"AIS","B1","B1","B1","B1","PISd",0,0,0,0,"B1", 0,15,   0, 0,    0,"AIS","N/A    ","OK ","OK ",    000767.402,    -038.537,    0097.967,    0015.901,    0050.692
"FRM_AIS_EDR_1997.DAT           ",2005-08-04T22:05:05.24 ,"1/0071273100.05368",    0,   44,  274896,"AIS","B1","B1","B1","B1","PISd",0,0,0,0,"B1", 0,15,   0, 0,    0,"AIS","N/A    ","OK ","OK ",    000758.864,    -038.143,    0097.975,    0015.904,    0050.739
"FRM_AIS_EDR_1997.DAT           ",2005-08-04T22:05:12.78 ,"1/0071273107.40968",    0,   45,  274896,"AIS","B1","B1","B1","B1","PISd",0,0,0,0,"B1", 0,15,   0, 0,    0,"AIS","N/A    ","OK ","OK ",    000750.382,    -037.747,    0097.982,    0015.906,    0050.788
"FRM_AIS_EDR_1997.DAT           ",2005-08-04T22:05:20.33 ,"1/0071273115.11031",    0,   46,  274896,"AIS","B1","B1","B1","B1","PISd",0,0,0,0,"B1", 0,15,   0, 0,    0,"AIS","N/A    ","OK ","OK ",    000741.958,    -037.350,    0097.989,    0015.909,    0050.840
"FRM_AIS_EDR_1997.DAT           ",2005-08-04T22:05:27.87 ,"1/0071273122.46630",    0,   47,  274896,"AIS","B1","B1","B1","B1","PISd",0,0,0,0,"B1", 0,15,   0, 0,    0,"AIS","N/A    ","OK ","OK ",    000733.591,    -036.951,    0097.996,    0015.911,    0050.894
"FRM_AIS_EDR_1997.DAT           ",2005-08-04T22:05:35.41 ,"1/0071273130.16693",    0,   48,  274896,"AIS","B1","B1","B1","B1","PISd",0,0,0,0,"B1", 0,15,   0, 0,    0,"AIS","N/A    ","OK ","OK ",    000725.282,    -036.551,    0098.002,    0015.914,    0050.951
"FRM_AIS_EDR_1997.DAT           ",2005-08-04T22:05:42.96 ,"1/0071273137.52293",    0,   49,  274896,"AIS","B1","B1","B1","B1","PISd",0,0,0,0,"B1", 0,15,   0, 0,    0,"AIS","N/A    ","OK ","OK ",    000717.032,    -036.149,    0098.009,    0015.916,    0051.011
"FRM_AIS_EDR_1997.DAT           ",2005-08-04T22:05:50.50 ,"1/0071273145.22356",    0,   50,  274896,"AIS","B1","B1","B1","B1","PISd",0,0,0,0,"B1", 0,15,   0, 0,    0,"AIS","N/A    ","OK ","OK ",    000708.842,    -035.745,    0098.015,    0015.919,    0051.073
"FRM_AIS_EDR_1997.DAT           ",2005-08-04T22:05:58.04 ,"1/0071273152.57955",    0,   51,  274896,"AIS","B1","B1","B1","B1","PISd",0,0,0,0,"B1", 0,15,   0, 0,    0,"AIS","N/A    ","OK ","OK ",    000700.712,    -035.340,    0098.020,    0015.921,    0051.137
"FRM_AIS_EDR_1997.DAT           ",2005-08-04T22:06:05.59 ,"1/0071273160.28019",    0,   52,  274896,"AIS","B1","B1","B1","B1","PISd",0,0,0,0,"B1", 0,15,   0, 0,    0,"AIS","N/A    ","OK ","OK ",    000692.643,    -034.933,    0098.026,    0015.924,    0051.204
"FRM_AIS_EDR_1997.DAT           ",2005-08-04T22:06:13.13 ,"1/0071273167.63618",    0,   53,  274896,"AIS","B1","B1","B1","B1","PISd",0,0,0,0,"B1", 0,15,   0, 0,    0,"AIS","N/A    ","OK ","OK ",    000684.636,    -034.525,    0098.031,    0015.926,    0051.273
"FRM_AIS_EDR_1997.DAT           ",2005-08-04T22:06:20.67 ,"1/0071273175.33681",    0,   54,  274896,"AIS","B1","B1","B1","B1","PISd",0,0,0,0,"B1", 0,15,   0, 0,    0,"AIS","N/A    ","OK ","OK ",    000676.691,    -034.115,    0098.037,    0015.928,    0051.346
"FRM_AIS_EDR_1997.DAT           ",2005-08-04T22:06:28.22 ,"1/0071273183.03745",    0,   55,  274896,"AIS","B1","B1","B1","B1","PISd",0,0,0,0,"B1", 0,15,   0, 0,    0,"AIS","N/A    ","OK ","OK ",    000668.808,    -033.703,    0098.042,    0015.931,    0051.420
"FRM_AIS_EDR_1997.DAT           ",2005-08-04T22:06:35.76 ,"1/0071273190.39344",    0,   56,  274896,"AIS","B1","B1","B1","B1","PISd",0,0,0,0,"B1", 0,15,   0, 0,    0,"AIS","N/A    ","OK ","OK ",    000660.990,    -033.290,    0098.046,    0015.933,    0051.498
"FRM_AIS_EDR_1997.DAT           ",2005-08-04T22:06:43.30 ,"1/0071273198.09407",    0,   57,  274896,"AIS","B1","B1","B1","B1","PISd",0,0,0,0,"B1", 0,15,   0, 0,    0,"AIS","N/A    ","OK ","OK ",    000653.236,    -032.875,    0098.051,    0015.935,    0051.578
"FRM_AIS_EDR_1997.DAT           ",2005-08-04T22:06:50.85 ,"1/0071273205.45007",    0,   58,  274896,"AIS","B1","B1","B1","B1","PISd",0,0,0,0,"B1", 0,15,   0, 0,    0,"AIS","N/A    ","OK ","OK ",    000645.547,    -032.459,    0098.055,    0015.938,    0051.660
"FRM_AIS_EDR_1997.DAT           ",2005-08-04T22:06:58.39 ,"1/0071273213.15070",    0,   59,  274896,"AIS","B1","B1","B1","B1","PISd",0,0,0,0,"B1", 0,15,   0, 0,    0,"AIS","N/A    ","OK ","OK ",    000637.923,    -032.041,    0098.059,    0015.940,    0051.746
"FRM_AIS_EDR_1997.DAT           ",2005-08-04T22:07:05.93 ,"1/0071273220.50669",    0,   60,  274896,"AIS","B1","B1","B1","B1","PISd",0,0,0,0,"B1", 0,15,   0, 0,    0,"AIS","N/A    ","OK ","OK ",    000630.366,    -031.621,    0098.063,    0015.942,    0051.834
"FRM_AIS_EDR_1997.DAT           ",2005-08-04T22:07:13.48 ,"1/0071273228.20733",    0,   61,  274896,"AIS","B1","B1","B1","B1","PISd",0,0,0,0,"B1", 0,15,   0, 0,    0,"AIS","N/A    ","OK ","OK ",    000622.876,    -031.200,    0098.067,    0015.945,    0051.924
"FRM_AIS_EDR_1997.DAT           ",2005-08-04T22:07:21.02 ,"1/0071273235.56332",    0,   62,  274896,"AIS","B1","B1","B1","B1","PISd",0,0,0,0,"B1", 0,15,   0, 0,    0,"AIS","N/A    ","OK ","OK ",    000615.454,    -030.778,    0098.071,    0015.947,    0052.018
"FRM_AIS_EDR_1997.DAT           ",2005-08-04T22:07:28.56 ,"1/0071273243.26395",    0,   63,  274896,"AIS","B1","B1","B1","B1","PISd",0,0,0,0,"B1", 0,15,   0, 0,    0,"AIS","N/A    ","OK ","OK ",    000608.100,    -030.354,    0098.074,    0015.949,    0052.114
"FRM_AIS_EDR_1997.DAT           ",2005-08-04T22:07:36.10 ,"1/0071273250.61995",    0,   64,  274896,"AIS","B1","B1","B1","B1","PISd",0,0,0,0,"B1", 0,15,   0, 0,    0,"AIS","N/A    ","OK ","OK ",    000600.816,    -029.928,    0098.077,    0015.951,    0052.213
"FRM_AIS_EDR_1997.DAT           ",2005-08-04T22:07:43.65 ,"1/0071273258.32058",    0,   65,  274896,"AIS","B1","B1","B1","B1","PISd",0,0,0,0,"B1", 0,15,   0, 0,    0,"AIS","N/A    ","OK ","OK ",    000593.601,    -029.501,    0098.080,    0015.954,    0052.314
"FRM_AIS_EDR_1997.DAT           ",2005-08-04T22:07:51.19 ,"1/0071273266.02121",    0,   66,  274896,"AIS","B1","B1","B1","B1","PISd",0,0,0,0,"B1", 0,15,   0, 0,    0,"AIS","N/A    ","OK ","OK ",    000586.456,    -029.072,    0098.083,    0015.956,    0052.419
"FRM_AIS_EDR_1997.DAT           ",2005-08-04T22:07:58.73 ,"1/0071273273.37721",    0,   67,  274896,"AIS","B1","B1","B1","B1","PISd",0,0,0,0,"B1", 0,15,   0, 0,    0,"AIS","N/A    ","OK ","OK ",    000579.383,    -028.642,    0098.086,    0015.958,    0052.526
"FRM_AIS_EDR_1997.DAT           ",2005-08-04T22:08:06.28 ,"1/0071273281.07784",    0,   68,  274896,"AIS","B1","B1","B1","B1","PISd",0,0,0,0,"B1", 0,15,   0, 0,    0,"AIS","N/A    ","OK ","OK ",    000572.382,    -028.210,    0098.089,    0015.960,    0052.636
"FRM_AIS_EDR_1997.DAT           ",2005-08-04T22:08:13.82 ,"1/0071273288.43383",    0,   69,  274896,"AIS","B1","B1","B1","B1","PISd",0,0,0,0,"B1", 0,15,   0, 0,    0,"AIS","N/A    ","OK ","OK ",    000565.453,    -027.777,    0098.091,    0015.963,    0052.748
"FRM_AIS_EDR_1997.DAT           ",2005-08-04T22:08:21.36 ,"1/0071273296.13447",    0,   70,  274896,"AIS","B1","B1","B1","B1","PISd",0,0,0,0,"B1", 0,15,   0, 0,    0,"AIS","N/A    ","OK ","OK ",    000558.597,    -027.342,    0098.093,    0015.965,    0052.864
"FRM_AIS_EDR_1997.DAT           ",2005-08-04T22:08:28.91 ,"1/0071273303.49046",    0,   71,  274896,"AIS","B1","B1","B1","B1","PISd",0,0,0,0,"B1", 0,15,   0, 0,    0,"AIS","N/A    ","OK ","OK ",    000551.815,    -026.906,    0098.096,    0015.967,    0052.982
"FRM_AIS_EDR_1997.DAT           ",2005-08-04T22:08:36.45 ,"1/0071273311.19109",    0,   72,  274896,"AIS","B1","B1","B1","B1","PISd",0,0,0,0,"B1", 0,15,   0, 0,    0,"AIS","N/A    ","OK ","OK ",    000545.108,    -026.468,    0098.098,    0015.969,    0053.103
"FRM_AIS_EDR_1997.DAT           ",2005-08-04T22:08:43.99 ,"1/0071273318.54709",    0,   73,  274896,"AIS","B1","B1","B1","B1","PISd",0,0,0,0,"B1", 0,15,   0, 0,    0,"AIS","N/A    ","OK ","OK ",    000538.476,    -026.029,    0098.099,    0015.971,    0053.227
"FRM_AIS_EDR_1997.DAT           ",2005-08-04T22:08:51.54 ,"1/0071273326.24772",    0,   74,  274896,"AIS","B1","B1","B1","B1","PISd",0,0,0,0,"B1", 0,15,   0, 0,    0,"AIS","N/A    ","OK ","OK ",    000531.920,    -025.588,    0098.101,    0015.973,    0053.353
"FRM_AIS_EDR_1997.DAT           ",2005-08-04T22:08:59.08 ,"1/0071273333.60371",    0,   75,  274896,"AIS","B1","B1","B1","B1","PISd",0,0,0,0,"B1", 0,15,   0, 0,    0,"AIS","N/A    ","OK ","OK ",    000525.440,    -025.146,    0098.103,    0015.976,    0053.483
"FRM_AIS_EDR_1997.DAT           ",2005-08-04T22:09:06.62 ,"1/0071273341.30435",    0,   76,  274896,"AIS","B1","B1","B1","B1","PISd",0,0,0,0,"B1", 0,15,   0, 0,    0,"AIS","N/A    ","OK ","OK ",    000519.038,    -024.703,    0098.104,    0015.978,    0053.615
"FRM_AIS_EDR_1997.DAT           ",2005-08-04T22:09:14.17 ,"1/0071273349.00498",    0,   77,  274896,"AIS","B1","B1","B1","B1","PISd",0,0,0,0,"B1", 0,15,   0, 0,    0,"AIS","N/A    ","OK ","OK ",    000512.714,    -024.258,    0098.106,    0015.980,    0053.750
"FRM_AIS_EDR_1997.DAT           ",2005-08-04T22:09:21.71 ,"1/0071273356.36097",    0,   78,  274896,"AIS","B1","B1","B1","B1","PISd",0,0,0,0,"B1", 0,15,   0, 0,    0,"AIS","N/A    ","OK ","OK ",    000506.468,    -023.811,    0098.107,    0015.982,    0053.888
"FRM_AIS_EDR_1997.DAT           ",2005-08-04T22:09:29.25 ,"1/0071273364.06161",    0,   79,  274896,"AIS","B1","B1","B1","B1","PISd",0,0,0,0,"B1", 0,15,   0, 0,    0,"AIS","N/A    ","OK ","OK ",    000500.301,    -023.363,    0098.108,    0015.984,    0054.028
"FRM_AIS_EDR_1997.DAT           ",2005-08-04T22:09:36.80 ,"1/0071273371.41760",    0,   80,  274896,"AIS","B1","B1","B1","B1","PISd",0,0,0,0,"B1", 0,15,   0, 0,    0,"AIS","N/A    ","OK ","OK ",    000494.215,    -022.914,    0098.109,    0015.986,    0054.172
"FRM_AIS_EDR_1997.DAT           ",2005-08-04T22:09:44.34 ,"1/0071273379.11823",    0,   81,  274896,"AIS","B1","B1","B1","B1","PISd",0,0,0,0,"B1", 0,15,   0, 0,    0,"AIS","N/A    ","OK ","OK ",    000488.209,    -022.464,    0098.110,    0015.988,    0054.318
"FRM_AIS_EDR_1997.DAT           ",2005-08-04T22:09:51.88 ,"1/0071273386.47423",    0,   82,  274896,"AIS","B1","B1","B1","B1","PISd",0,0,0,0,"B1", 0,15,   0, 0,    0,"AIS","N/A    ","OK ","OK ",    000482.284,    -022.012,    0098.110,    0015.990,    0054.467
"FRM_AIS_EDR_1997.DAT           ",2005-08-04T22:09:59.43 ,"1/0071273394.17486",    0,   83,  274896,"AIS","B1","B1","B1","B1","PISd",0,0,0,0,"B1", 0,15,   0, 0,    0,"AIS","N/A    ","OK ","OK ",    000476.441,    -021.558,    0098.111,    0015.992,    0054.619
"FRM_AIS_EDR_1997.DAT           ",2005-08-04T22:10:06.97 ,"1/0071273401.53085",    0,   84,  274896,"AIS","B1","B1","B1","B1","PISd",0,0,0,0,"B1", 0,15,   0, 0,    0,"AIS","N/A    ","OK ","OK ",    000470.680,    -021.104,    0098.112,    0015.994,    0054.773
"FRM_AIS_EDR_1997.DAT           ",2005-08-04T22:10:14.51 ,"1/0071273409.23149",    0,   85,  274896,"AIS","B1","B1","B1","B1","PISd",0,0,0,0,"B1", 0,15,   0, 0,    0,"AIS","N/A    ","OK ","OK ",    000465.003,    -020.648,    0098.112,    0015.996,    0054.931
"FRM_AIS_EDR_1997.DAT           ",2005-08-04T22:10:22.06 ,"1/0071273416.58748",    0,   86,  274896,"AIS","B1","B1","B1","B1","PISd",0,0,0,0,"B1", 0,15,   0, 0,    0,"AIS","N/A    ","OK ","OK ",    000459.410,    -020.190,    0098.112,    0015.999,    0055.091
"FRM_AIS_EDR_1997.DAT           ",2005-08-04T22:10:29.60 ,"1/0071273424.28811",    0,   87,  274896,"AIS","B1","B1","B1","B1","PISd",0,0,0,0,"B1", 0,15,   0, 0,    0,"AIS","N/A    ","OK ","OK ",    000453.900,    -019.732,    0098.113,    0016.001,    0055.254
"FRM_AIS_EDR_1997.DAT           ",2005-08-04T22:10:37.14 ,"1/0071273431.64411",    0,   88,  274896,"AIS","B1","B1","B1","B1","PISd",0,0,0,0,"B1", 0,15,   0, 0,    0,"AIS","N/A    ","OK ","OK ",    000448.476,    -019.272,    0098.113,    0016.003,    0055.419
"FRM_AIS_EDR_1997.DAT           ",2005-08-04T22:10:44.68 ,"1/0071273439.34474",    0,   89,  274896,"AIS","B1","B1","B1","B1","PISd",0,0,0,0,"B1", 0,15,   0, 0,    0,"AIS","N/A    ","OK ","OK ",    000443.138,    -018.811,    0098.113,    0016.005,    0055.588
"FRM_AIS_EDR_1997.DAT           ",2005-08-04T22:10:52.23 ,"1/0071273447.04537",    0,   90,  274896,"AIS","B1","B1","B1","B1","PISd",0,0,0,0,"B1", 0,15,   0, 0,    0,"AIS","N/A    ","OK ","OK ",    000437.886,    -018.348,    0098.113,    0016.007,    0055.759